Location: Unspecified
(42.5310°N, 0.0000°E)
Time: 18:52:43
(UTC+00:00)

ISS - Visible Passes

Search period start: 25 May 2019 00:00
Search period end: 04 June 2019 00:00
Orbit: 408 x 418 km, 51.6° (Epoch: 26 May)

Date Brightness Start Highest point End Pass type
(mag) Time Alt. Az. Time Alt. Az. Time Alt. Az.
25 May -0.9 21:25:57 10° NW 21:28:16 17° N 21:30:35 10° NE visible
25 May -1.9 23:02:37 10° NW 23:05:09 30° N 23:05:09 30° N visible
26 May -0.9 20:36:14 10° NW 20:38:33 17° N 20:40:52 10° NE visible
26 May -1.7 22:13:14 10° NW 22:16:03 24° NNE 22:17:13 20° NE visible
26 May -0.8 23:49:39 10° WNW 23:50:01 12° WNW 23:50:01 12° WNW visible
27 May -1.3 21:23:48 10° NW 21:26:23 20° NNE 21:28:58 10° ENE visible
27 May -2.0 23:00:11 10° NW 23:02:06 30° NW 23:02:06 30° NW visible
28 May -1.1 20:34:17 10° NW 20:36:39 18° N 20:39:02 10° NE visible
28 May -2.8 22:10:46 10° NW 22:13:58 41° NNE 22:14:12 40° NE visible
29 May -2.1 21:21:22 10° NW 21:24:21 29° NNE 21:26:19 17° ENE visible
29 May -1.5 22:57:53 10° WNW 22:59:08 20° WNW 22:59:08 20° WNW visible
30 May -1.7 20:31:55 10° NW 20:34:40 23° NNE 20:37:24 10° ENE visible
30 May -3.5 22:08:19 10° WNW 22:11:16 67° WNW 22:11:16 67° WNW visible
31 May -3.3 21:18:50 10° NW 21:22:08 56° NNE 21:23:27 31° E visible
31 May -0.9 22:56:04 10° W 22:56:15 11° W 22:56:15 11° W visible
01 Jun -2.6 20:29:22 10° NW 20:32:31 36° NNE 20:35:39 10° E visible
01 Jun -2.4 22:06:06 10° WNW 22:08:27 30° WSW 22:08:27 30° WSW visible
02 Jun -3.6 21:16:24 10° WNW 21:19:41 59° SW 21:20:41 38° SSE visible
03 Jun -3.7 20:26:49 10° NW 20:30:10 79° NE 20:32:57 14° ESE visible
03 Jun -1.2 22:04:45 10° W 22:05:47 13° WSW 22:05:47 13° WSW visible
